YO2LC Weather Reports


Display with metric or nautical units.
time (UTC)temp
F
wind
direction
speed
MPH
gust
MPH
rain 1hr
in
rain 24hr
in
rain mn
in
humidity
%
barometer
mb
20260503181028 55 170 0.0 0.0 0.00 0.02 0.02 59 1019.4
20260503180530 55 170 0.0 0.0 0.00 0.02 0.02 58 1019.4
20260503180040 56 170 0.0 0.0 0.00 0.02 0.02 57 1019.2
20260503175529 57 170 0.0 0.0 0.00 0.02 0.02 56 1019.2
20260503175027 57 170 0.0 0.0 0.00 0.02 0.02 56 1019.2
20260503174524 58 170 0.0 0.0 0.00 0.02 0.02 55 1019.2
20260503174027 58 170 0.0 0.0 0.00 0.02 0.02 54 1019.1
20260503173523 59 170 0.0 0.0 0.00 0.02 0.02 54 1019.2
20260503173023 60 170 0.0 0.0 0.00 0.02 0.02 53 1019.2
20260503172522 61 170 0.0 0.0 0.00 0.02 0.02 51 1019.1
20260503172021 62 170 0.0 0.0 0.00 0.02 0.02 51 1019.2
20260503171525 63 170 0.0 0.0 0.00 0.02 0.02 49 1019.3
20260503171021 65 170 0.0 0.0 0.00 0.02 0.02 45 1019.3
20260503170522 66 170 0.0 0.0 0.00 0.02 0.02 44 1019.2
20260503150502 69 170 0.0 0.0 0.00 0.02 0.02 37 1019.7
20260503131028 68 170 0.0 0.0 0.00 0.02 0.02 39 1020.9
20260503130531 67 170 0.0 0.0 0.00 0.02 0.02 39 1020.7
20260503110509 65 170 0.0 0.0 0.00 0.02 0.02 40 1021.9
20260503081535 60 170 0.0 0.0 0.00 0.02 0.02 47 1023.4
20260503081035 60 170 0.0 0.0 0.00 0.02 0.02 47 1023.4
20260503080532 60 170 0.0 0.0 0.00 0.02 0.02 47 1023.4
20260503072525 58 170 0.0 0.0 0.00 0.02 0.02 51 1023.6
20260503072024 58 170 0.0 0.0 0.00 0.02 0.02 52 1023.6
20260503071522 58 170 0.0 0.0 0.00 0.02 0.02 51 1023.6
20260503071021 58 170 0.0 0.0 0.00 0.02 0.02 50 1023.6
20260503070520 58 170 0.0 0.0 0.00 0.02 0.02 50 1023.7
20260503055005 55 170 0.0 0.0 0.00 0.02 0.02 58 1023.2
20260503054507 55 170 0.0 0.0 0.00 0.02 0.02 61 1023.2
20260503054003 54 170 0.0 0.0 0.00 0.02 0.02 60 1023.1
20260503053502 54 170 0.0 0.0 0.00 0.02 0.02 62 1023.1
20260503053006 53 170 0.0 0.0 0.00 0.02 0.02 64 1023.0
20260503052559 53 170 0.0 0.0 0.00 0.02 0.02 64 1023.0
20260503052059 52 170 0.0 0.0 0.00 0.02 0.02 65 1022.9
20260503051557 52 170 0.0 0.0 0.00 0.02 0.02 65 1022.9
20260503051057 51 170 0.0 0.0 0.00 0.02 0.02 67 1022.9
20260503050557 51 170 0.0 0.0 0.00 0.02 0.02 68 1022.9
20260503050056 50 170 0.0 0.0 0.00 0.02 0.02 67 1022.9
20260503045555 50 170 0.0 0.0 0.00 0.02 0.02 68 1022.9
20260503045054 50 170 0.0 0.0 0.00 0.02 0.02 69 1022.9
20260503044611 50 170 0.0 0.0 0.00 0.02 0.02 69 1022.8
20260503044053 50 170 0.0 0.0 0.00 0.02 0.02 69 1022.6
20260503043552 49 170 0.0 0.0 0.00 0.02 0.02 70 1022.7
20260503043057 49 170 0.0 0.0 0.00 0.02 0.02 70 1022.6
20260503042551 49 170 0.0 0.0 0.00 0.02 0.02 69 1022.6
20260503042051 49 170 0.0 0.0 0.00 0.02 0.02 69 1022.6
20260503041609 49 170 0.0 0.0 0.00 0.02 0.02 70 1022.5
20260503041048 49 170 0.0 0.0 0.00 0.02 0.02 70 1022.4
20260503040549 49 170 0.0 0.0 0.00 0.02 0.02 70 1022.5
20260503040052 49 170 0.0 0.0 0.00 0.02 0.02 70 1022.4
20260503035547 49 170 0.0 0.0 0.00 0.02 0.02 70 1022.4
20260503035045 48 170 0.0 0.0 0.00 0.02 0.02 70 1022.3
20260503034545 48 170 0.0 0.0 0.00 0.02 0.02 71 1022.2
20260503034044 48 170 0.0 0.0 0.00 0.02 0.02 71 1022.1
20260503033543 48 170 0.0 0.0 0.00 0.02 0.02 71 1022.1
20260503033048 48 170 0.0 0.0 0.00 0.02 0.02 71 1022.0
20260503032546 48 170 0.0 0.0 0.00 0.02 0.02 71 1022.0
20260503032042 48 170 0.0 0.0 0.00 0.02 0.02 71 1022.0
20260503031541 48 170 0.0 0.0 0.00 0.02 0.02 71 1022.0
20260503031041 48 170 0.0 0.0 0.00 0.02 0.02 71 1021.9
20260503030538 48 170 0.0 0.0 0.00 0.02 0.02 71 1021.9
20260503030038 48 170 0.0 0.0 0.00 0.02 0.02 71 1021.7
20260503025536 48 170 0.0 0.0 0.00 0.02 0.02 71 1021.7
20260503025036 48 170 0.0 0.0 0.00 0.02 0.02 72 1021.7
20260503024538 48 170 0.0 0.0 0.00 0.02 0.02 72 1021.6
20260503024035 48 170 0.0 0.0 0.00 0.02 0.02 72 1021.6
20260503023534 48 170 0.0 0.0 0.00 0.02 0.02 73 1021.7
20260503023034 48 170 0.0 0.0 0.00 0.02 0.02 72 1021.6
20260503022533 48 170 0.0 0.0 0.00 0.02 0.02 72 1021.5
20260503022033 48 170 0.0 0.0 0.00 0.02 0.02 72 1021.4
20260503021532 48 170 0.0 0.0 0.00 0.02 0.02 71 1021.6
20260503021031 48 170 0.0 0.0 0.00 0.02 0.02 71 1021.5
20260503020531 49 170 0.0 0.0 0.00 0.02 0.02 71 1021.5
20260503020030 48 170 0.0 0.0 0.00 0.02 0.02 71 1021.3
20260503015529 49 170 0.0 0.0 0.00 0.02 0.02 71 1021.3
20260503015028 48 170 0.0 0.0 0.00 0.02 0.02 71 1021.3
20260503014530 49 170 0.0 0.0 0.00 0.02 0.02 71 1021.2
20260503014027 49 170 0.0 0.0 0.00 0.02 0.02 70 1021.0
20260503013526 49 170 0.0 0.0 0.00 0.02 0.02 71 1021.2
20260503013028 49 170 0.0 0.0 0.00 0.02 0.02 70 1021.2
20260503012525 49 170 0.0 0.0 0.00 0.02 0.02 70 1021.1
20260503012024 49 170 0.0 0.0 0.00 0.02 0.02 70 1021.0
20260503011531 49 170 0.0 0.0 0.00 0.02 0.02 70 1020.9
20260503011023 49 170 0.0 0.0 0.00 0.02 0.02 70 1021.0
20260503010522 49 170 0.0 0.0 0.00 0.02 0.02 69 1021.1
20260503010022 49 170 0.0 0.0 0.00 0.02 0.02 69 1020.8
20260503005523 49 170 0.0 0.0 0.00 0.02 0.02 70 1020.8
20260503005021 49 170 0.0 0.0 0.00 0.02 0.02 70 1020.8
20260503004520 49 170 0.0 0.0 0.00 0.02 0.02 70 1020.8
20260503004019 49 170 0.0 0.0 0.00 0.02 0.02 70 1020.7
20260503003519 49 170 0.0 0.0 0.00 0.02 0.02 71 1020.7
20260503003017 49 170 0.0 0.0 0.00 0.02 0.02 71 1020.8
20260503002517 49 170 0.0 0.0 0.00 0.02 0.02 72 1020.9
20260503002018 49 170 0.0 0.0 0.00 0.02 0.02 73 1021.0
20260503001516 49 170 0.0 0.0 0.00 0.02 0.02 73 1021.2
20260503001014 49 170 0.0 0.0 0.00 0.02 0.02 73 1021.3
20260503000514 49 170 0.0 0.0 0.00 0.02 0.02 73 1021.3
20260503000013 49 170 0.0 0.0 0.00 0.02 0.02 73 1021.3
20260502235512 49 170 0.0 0.0 0.00 0.02 0.02 73 1021.4
20260502235011 49 170 0.0 0.0 0.00 0.02 0.02 72 1021.5
20260502234528 49 170 0.0 0.0 0.00 0.02 0.02 72 1021.3
20260502234010 49 170 0.0 0.0 0.00 0.02 0.02 72 1021.3
20260502233510 50 170 0.0 0.0 0.00 0.02 0.02 72 1021.3
20260502233008 50 170 0.0 0.0 0.00 0.02 0.02 71 1021.3
20260502232510 50 170 0.0 0.0 0.00 0.02 0.02 71 1021.3
20260502232007 50 170 0.0 0.0 0.00 0.02 0.02 71 1021.3
20260502231506 50 170 0.0 0.0 0.00 0.02 0.02 70 1021.3
20260502231005 50 170 0.0 0.0 0.00 0.02 0.02 70 1021.2
20260502230503 50 170 0.0 0.0 0.00 0.02 0.02 70 1021.1
20260502230004 50 170 0.0 0.0 0.00 0.02 0.02 69 1021.1
20260502225501 50 170 0.0 0.0 0.00 0.02 0.02 69 1021.0
20260502225100 51 170 0.0 0.0 0.01 0.02 0.02 69 1021.0
20260502224600 51 170 0.0 0.0 0.01 0.02 0.02 69 1020.8
20260502224059 51 170 0.0 0.0 0.01 0.02 0.02 68 1020.8
20260502223559 51 170 0.0 0.0 0.01 0.02 0.02 68 1020.9
20260502223057 51 170 0.0 0.0 0.02 0.02 0.02 67 1020.9
20260502222557 51 170 0.0 0.0 0.02 0.02 0.02 67 1020.9
20260502222055 51 170 0.0 0.0 0.02 0.02 0.02 66 1020.9
20260502221554 52 170 0.0 0.0 0.02 0.02 0.02 65 1021.0
20260502221052 52 170 0.0 0.0 0.02 0.02 0.02 65 1020.9
20260502220555 52 170 0.0 0.0 0.02 0.02 0.02 65 1021.0
20260502220126 52 170 0.0 0.0 0.02 0.02 0.02 64 1021.0
20260502215549 52 170 0.0 0.0 0.02 0.02 0.02 64 1020.9
20260502215047 52 170 0.0 0.0 0.01 0.01 0.01 63 1020.9
20260502214547 52 170 0.0 0.0 0.01 0.01 0.01 62 1021.0
20260502214045 52 170 0.0 0.0 0.01 0.01 0.01 62 1021.0
20260502213544 53 170 0.0 0.0 0.01 0.01 0.01 62 1021.0
20260502213043 53 170 0.0 0.0 0.00 0.00 0.00 61 1021.0
20260502212541 53 170 0.0 0.0 0.00 0.00 0.00 61 1021.0
20260502212041 53 170 0.0 0.0 0.00 0.00 0.00 61 1021.1
20260502211542 53 170 0.0 0.0 0.00 0.00 0.00 61 1021.1
20260502211042 54 170 0.0 0.0 0.00 0.00 0.00 61 1021.0
20260502210539 54 170 0.0 0.0 0.00 0.00 0.00 61 1021.0
20260502210034 54 170 0.0 0.0 0.00 0.00 0.00 61 1021.0
20260502205534 54 170 0.0 0.0 0.00 0.00 0.00 62 1020.9
20260502205034 55 170 0.0 0.0 0.00 0.00 0.00 62 1021.0
20260502204533 55 170 0.0 0.0 0.00 0.00 0.00 62 1021.0
20260502204033 55 170 0.0 0.0 0.00 0.00 0.00 62 1020.9
20260502203531 56 170 0.0 0.0 0.00 0.00 0.00 62 1020.8
20260502203030 56 170 0.0 0.0 0.00 0.00 0.00 62 1020.8
20260502202530 56 170 0.0 0.0 0.00 0.00 0.00 61 1020.8
20260502202032 57 170 0.0 0.0 0.00 0.00 0.00 61 1020.6
20260502201537 57 170 0.0 0.0 0.00 0.00 0.00 60 1020.5
20260502201029 57 170 0.0 0.0 0.00 0.00 0.00 60 1020.5
20260502200528 56 170 0.0 0.0 0.00 0.00 0.00 62 1020.5
20260502200028 54 170 0.0 0.0 0.00 0.00 0.00 65 1020.5
20260502195531 54 170 0.0 0.0 0.00 0.00 0.00 69 1020.3
20260502195028 54 170 0.0 0.0 0.00 0.00 0.00 68 1020.3
20260502194627 54 170 0.0 0.0 0.00 0.00 0.00 68 1020.2
20260502194025 54 170 0.0 0.0 0.00 0.00 0.00 67 1020.2
20260502193527 54 170 0.0 0.0 0.00 0.00 0.00 66 1020.2
20260502193029 54 170 0.0 0.0 0.00 0.00 0.00 67 1020.2
20260502192522 54 170 0.0 0.0 0.00 0.00 0.00 67 1020.2
20260502192021 54 170 0.0 0.0 0.00 0.00 0.00 67 1020.1
20260502191526 54 170 0.0 0.0 0.00 0.00 0.00 66 1020.1
20260502191021 54 170 0.0 0.0 0.00 0.00 0.00 66 1020.1
20260502190520 54 170 0.0 0.0 0.00 0.00 0.00 66 1020.0
20260502190021 54 170 0.0 0.0 0.00 0.00 0.00 66 1020.0
20260502185518 54 170 0.0 0.0 0.00 0.00 0.00 66 1020.0
20260502185018 55 170 0.0 0.0 0.00 0.00 0.00 65 1019.9
20260502184523 55 170 0.0 0.0 0.00 0.00 0.00 65 1019.9
20260502184117 55 170 0.0 0.0 0.00 0.00 0.00 65 1019.9
20260502183519 55 170 0.0 0.0 0.00 0.00 0.00 65 1019.8
20260502183016 55 170 0.0 0.0 0.00 0.00 0.00 65 1019.8
20260502182519 55 170 0.0 0.0 0.00 0.00 0.00 64 1019.8
20260502182014 55 170 0.0 0.0 0.00 0.00 0.00 64 1019.6
20260502181514 56 170 0.0 0.0 0.00 0.00 0.00 63 1019.5